| time (UTC) | temp F | wind direction | speed MPH | gust MPH | rain 1hr in | rain 24hr in | rain mn in | humidity % | barometer mb |
| 20260502220035 | 59 | 0 | 1.0 | 10.0 | 0.00 | 0.00 | 0.00 | 34 | 1011.1 |
| 20260502214532 | 58 | 319 | 0.0 | 5.0 | 0.00 | 0.00 | 0.00 | 33 | 1011.1 |
| 20260502213043 | 58 | 0 | 0.0 | 9.0 | 0.00 | 0.00 | 0.00 | 33 | 1011.2 |
| 20260502211538 | 58 | 0 | 0.0 | 6.0 | 0.00 | 0.00 | 0.00 | 42 | 1010.9 |
| 20260502210038 | 59 | 314 | 3.0 | 12.0 | 0.00 | 0.00 | 0.00 | 38 | 1010.8 |
| 20260502204539 | 59 | 316 | 2.0 | 8.0 | 0.00 | 0.00 | 0.00 | 41 | 1010.7 |
| 20260502203039 | 59 | 315 | 2.0 | 10.0 | 0.00 | 0.00 | 0.00 | 41 | 1010.7 |
| 20260502201534 | 59 | 0 | 0.0 | 5.0 | 0.00 | 0.00 | 0.00 | 39 | 1011.0 |
| 20260502200100 | 59 | 0 | 0.0 | 8.0 | 0.00 | 0.00 | 0.00 | 39 | 1011.1 |
| 20260502194547 | 60 | 321 | 2.0 | 11.0 | 0.00 | 0.00 | 0.00 | 33 | 1011.4 |
| 20260502193036 | 58 | 323 | 1.0 | 10.0 | 0.00 | 0.00 | 0.00 | 34 | 1011.6 |
| 20260502191536 | 59 | 0 | 1.0 | 10.0 | 0.00 | 0.00 | 0.00 | 38 | 1011.7 |
| 20260502190035 | 60 | 346 | 2.0 | 8.0 | 0.00 | 0.00 | 0.00 | 30 | 1012.0 |
| 20260502184535 | 59 | 0 | 0.0 | 8.0 | 0.00 | 0.00 | 0.00 | 34 | 1012.1 |
| 20260502183045 | 59 | 0 | 1.0 | 8.0 | 0.00 | 0.00 | 0.00 | 37 | 1012.3 |
| 20260502181535 | 58 | 0 | 1.0 | 5.0 | 0.00 | 0.00 | 0.00 | 38 | 1012.4 |
| 20260502163035 | 56 | 314 | 2.0 | 8.0 | 0.00 | 0.00 | 0.00 | 56 | 1013.1 |
| 20260502161542 | 57 | 328 | 1.0 | 8.0 | 0.00 | 0.00 | 0.00 | 59 | 1013.4 |
| 20260502151534 | 54 | 316 | 2.0 | 8.0 | 0.00 | 0.00 | 0.00 | 61 | 1013.3 |
| 20260502123036 | 53 | 338 | 0.0 | 4.0 | 0.00 | 0.00 | 0.00 | 71 | 1013.4 |
| 20260502121536 | 53 | 0 | 0.0 | 4.0 | 0.00 | 0.00 | 0.00 | 77 | 1013.2 |
| 20260502114530 | 52 | 0 | 0.0 | 3.0 | 0.00 | 0.00 | 0.00 | 80 | 1013.2 |
| 20260502113043 | 52 | 0 | 0.0 | 4.0 | 0.00 | 0.00 | 0.00 | 80 | 1013.0 |
| 20260502111537 | 50 | 323 | 0.0 | 9.0 | 0.00 | 0.00 | 0.00 | 85 | 1013.0 |
| 20260502110037 | 49 | 0 | 0.0 | 0.0 | 0.00 | 0.00 | 0.00 | 91 | 1012.9 |
| 20260502104538 | 48 | 0 | 0.0 | 0.0 | 0.00 | 0.00 | 0.00 | 89 | 1012.8 |
| 20260502103057 | 48 | 0 | 0.0 | 0.0 | 0.00 | 0.00 | 0.00 | 88 | 1012.5 |
| 20260502101547 | 48 | 0 | 0.0 | 0.0 | 0.00 | 0.00 | 0.00 | 87 | 1012.6 |
| 20260502070036 | 51 | 0 | 0.0 | 0.0 | 0.00 | 0.00 | 0.00 | 91 | 1012.4 |
| 20260502064537 | 51 | 0 | 0.0 | 0.0 | 0.00 | 0.00 | 0.00 | 90 | 1012.7 |
| 20260502063041 | 52 | 0 | 0.0 | 0.0 | 0.00 | 0.00 | 0.00 | 89 | 1012.4 |
| 20260502061539 | 52 | 0 | 0.0 | 0.0 | 0.00 | 0.00 | 0.00 | 88 | 1012.8 |
| 20260502060038 | 52 | 0 | 0.0 | 2.0 | 0.00 | 0.00 | 0.00 | 87 | 1012.9 |
| 20260502054549 | 52 | 125 | 0.0 | 2.0 | 0.00 | 0.00 | 0.00 | 84 | 1012.6 |
| 20260502053037 | 52 | 0 | 0.0 | 2.0 | 0.00 | 0.00 | 0.00 | 83 | 1013.1 |
| 20260502051534 | 52 | 0 | 0.0 | 1.0 | 0.00 | 0.00 | 0.00 | 80 | 1013.0 |
| 20260502050037 | 52 | 0 | 0.0 | 1.0 | 0.00 | 0.00 | 0.00 | 79 | 1012.9 |
| 20260502044532 | 52 | 0 | 0.0 | 3.0 | 0.00 | 0.00 | 0.00 | 77 | 1013.0 |
| 20260502043035 | 52 | 0 | 0.0 | 3.0 | 0.00 | 0.00 | 0.00 | 75 | 1013.0 |
| 20260502041534 | 53 | 0 | 0.0 | 4.0 | 0.00 | 0.00 | 0.00 | 74 | 1013.1 |
| 20260502040036 | 53 | 0 | 0.0 | 3.0 | 0.00 | 0.00 | 0.00 | 72 | 1012.6 |
| 20260502034533 | 53 | 0 | 0.0 | 0.0 | 0.00 | 0.00 | 0.00 | 73 | 1012.7 |
| 20260502033041 | 53 | 0 | 0.0 | 3.0 | 0.00 | 0.00 | 0.00 | 71 | 1012.1 |
| 20260502031532 | 53 | 0 | 0.0 | 6.0 | 0.00 | 0.00 | 0.00 | 70 | 1012.4 |
| 20260502030043 | 54 | 0 | 0.0 | 8.0 | 0.00 | 0.00 | 0.00 | 68 | 1013.0 |
| 20260502024536 | 54 | 0 | 0.0 | 7.0 | 0.00 | 0.00 | 0.00 | 66 | 1012.6 |
| 20260502023037 | 54 | 0 | 1.0 | 4.0 | 0.00 | 0.00 | 0.00 | 65 | 1013.2 |
| 20260502021535 | 54 | 0 | 0.0 | 4.0 | 0.00 | 0.00 | 0.00 | 64 | 1013.2 |
| 20260502020033 | 55 | 0 | 0.0 | 6.0 | 0.00 | 0.00 | 0.00 | 62 | 1012.9 |
| 20260502014536 | 55 | 0 | 1.0 | 5.0 | 0.00 | 0.00 | 0.00 | 60 | 1012.9 |
| 20260502013036 | 56 | 0 | 0.0 | 5.0 | 0.00 | 0.00 | 0.00 | 58 | 1012.8 |
| 20260502011536 | 57 | 0 | 0.0 | 5.0 | 0.00 | 0.00 | 0.00 | 57 | 1012.7 |
| 20260502010041 | 56 | 0 | 0.0 | 2.0 | 0.00 | 0.00 | 0.00 | 59 | 1012.4 |
| 20260502004537 | 56 | 0 | 0.0 | 0.0 | 0.00 | 0.00 | 0.00 | 59 | 1012.4 |
| 20260502003036 | 57 | 0 | 0.0 | 0.0 | 0.00 | 0.00 | 0.00 | 56 | 1011.7 |
| 20260502001535 | 58 | 0 | 0.0 | 1.0 | 0.00 | 0.00 | 0.00 | 48 | 1011.5 |
| 20260502000035 | 58 | 0 | 0.0 | 1.0 | 0.00 | 0.00 | 0.00 | 53 | 1011.7 |
| 20260501234538 | 59 | 0 | 0.0 | 0.0 | 0.00 | 0.05 | 0.00 | 53 | 1011.5 |
| 20260501233049 | 59 | 0 | 0.0 | 0.0 | 0.00 | 0.05 | 0.00 | 53 | 1011.4 |
| 20260501231534 | 60 | 0 | 0.0 | 1.0 | 0.00 | 0.05 | 0.00 | 44 | 1011.4 |
| 20260501230033 | 60 | 0 | 0.0 | 0.0 | 0.00 | 0.05 | 0.00 | 44 | 1011.2 |
| 20260501224539 | 61 | 0 | 0.0 | 0.0 | 0.00 | 0.05 | 0.00 | 41 | 1011.3 |
| 20260501223041 | 61 | 0 | 0.0 | 1.0 | 0.00 | 0.05 | 0.00 | 48 | 1011.1 |
| 20260501221536 | 62 | 0 | 0.0 | 2.0 | 0.00 | 0.05 | 0.00 | 42 | 1011.2 |